This is the latest recevied weather packets stored in our database for station/object W7TTE. If no packets are shown the sender has not sent any weather packets the latest 10 day(s).
| Time | Temp. | Humidity | Pressure | Rain* | Wind** | Luminosity | Snow |
|---|---|---|---|---|---|---|---|
| 1778024852 | 25.56° C | 27% | 1011.9 hPa | 0 mm | - | 151 W/m² | - |
| 1778024550 | 25.56° C | 27% | 1011.7 hPa | 0 mm | - | 308 W/m² | - |
| 1778024246 | 25.56° C | 27% | 1011.9 hPa | 0 mm | - | 321 W/m² | - |
| 1778023944 | 25.56° C | 26% | 1011.9 hPa | 0 mm | - | 335 W/m² | - |
| 1778023641 | 25.56° C | 26% | 1012 hPa | 0 mm | - | 346 W/m² | - |
| 1778023338 | 26.11° C | 26% | 1011.7 hPa | 0 mm | - | 368 W/m² | - |
| 1778023035 | 25° C | 27% | 1011.8 hPa | 0 mm | - | 397 W/m² | - |
| 1778022734 | 25° C | 27% | 1012 hPa | 0 mm | - | 242 W/m² | - |
| 1778022432 | 25.56° C | 26% | 1011.9 hPa | 0 mm | - | 355 W/m² | - |
| 1778022128 | 25.56° C | 26% | 1011.8 hPa | 0 mm | - | 448 W/m² | - |
| 1778021824 | 26.11° C | 27% | 1011.9 hPa | 0 mm | - | 462 W/m² | - |
| 1778021521 | 25.56° C | 26% | 1011.9 hPa | 0 mm | - | 486 W/m² | - |
| 1778021217 | 26.11° C | 26% | 1012.2 hPa | 0 mm | - | 523 W/m² | - |
| 1778020915 | 26.11° C | 27% | 1012 hPa | 0 mm | - | 522 W/m² | - |
| 1778020612 | 26.11° C | 28% | 1012.4 hPa | 0 mm | - | 124 W/m² | - |
| 1778020308 | 26.11° C | 27% | 1012.3 hPa | 0 mm | - | 567 W/m² | - |
| 1778020004 | 25.56° C | 27% | 1012.3 hPa | 0 mm | - | 361 W/m² | - |
| 1778019701 | 25.56° C | 27% | 1012.3 hPa | 0 mm | - | 607 W/m² | - |
| 1778019398 | 26.67° C | 26% | 1012.5 hPa | 0 mm | - | 564 W/m² | - |
| 1778019094 | 25.56° C | 27% | 1012.3 hPa | 0 mm | - | 666 W/m² | - |
| 1778018792 | 24.44° C | 29% | 1012.7 hPa | 0 mm | - | 428 W/m² | - |
| 1778018490 | 25° C | 28% | 1012.5 hPa | 0 mm | - | 211 W/m² | - |
| 1778018187 | 25° C | 28% | 1012.9 hPa | 0 mm | - | 221 W/m² | - |
| 1778017885 | 25° C | 27% | 1012.8 hPa | 0 mm | - | 181 W/m² | - |
| 1778017583 | 25.56° C | 27% | 1012.8 hPa | 0 mm | - | 726 W/m² | - |
* Rain latest hour (hover to see other rain measurements)
** Current wind speed in m/s (hover to see current wind gust speed)